• In Hungary
  • List of Countries
  • For 7 days
  • Water Temperature
  • Satellite Maps
  • Weather Map
  • News
  • Weather Widgets
  • user-avatar
    Login

    Hourly Weather Glinkovo

    Today, 24 September, Monday

    Time Temperature Precipitation Wind Pressure Humidity
    00:00 +8°C° 0 mm 3 mps 743 mmHg 88%
    01:00 +7°C° 0 mm 3 mps 743 mmHg 90%
    02:00 +6°C° 0 mm 2 mps 743 mmHg 95%
    03:00 +6°C° 0 mm 2 mps 743 mmHg 95%
    04:00 +6°C° 0 mm 2 mps 743 mmHg 96%
    05:00 +6°C° 0 mm 2 mps 743 mmHg 96%
    06:00 +7°C° 0 mm 2 mps 743 mmHg 92%
    07:00 +8°C° 0 mm 3 mps 743 mmHg 88%
    08:00 +9°C° 0 mm 3 mps 743 mmHg 83%
    09:00 +10°C° 0.1 mm 3 mps 743 mmHg 79%
    10:00 +11°C° 0.1 mm 3 mps 743 mmHg 75%
    11:00 +12°C° 0.1 mm 4 mps 742 mmHg 71%
    12:00 +12°C° 0.8 mm 4 mps 742 mmHg 76%
    13:00 +11°C° 0.8 mm 3 mps 741 mmHg 82%
    14:00 +10°C° 0.8 mm 3 mps 741 mmHg 87%
    15:00 +8°C° 1.3 mm 4 mps 740 mmHg 88%
    16:00 +8°C° 1.3 mm 4 mps 739 mmHg 90%
    17:00 +7°C° 1.3 mm 5 mps 738 mmHg 91%
    18:00 +7°C° 1.9 mm 5 mps 736 mmHg 92%
    19:00 +7°C° 1.9 mm 5 mps 735 mmHg 92%
    20:00 +7°C° 1.9 mm 5 mps 734 mmHg 93%
    21:00 +7°C° 2.1 mm 5 mps 733 mmHg 93%
    22:00 +7°C° 2.1 mm 4 mps 733 mmHg 93%
    23:00 +8°C° 2.1 mm 4 mps 732 mmHg 94%

    Tomorrow, 25 September, Tuesday

    Time Temperature Precipitation Wind Pressure Humidity
    00:00 +7°C° 1.2 mm 4 mps 732 mmHg 94%
    01:00 +7°C° 1.2 mm 4 mps 732 mmHg 93%
    02:00 +7°C° 1.2 mm 4 mps 732 mmHg 93%
    03:00 +7°C° 0.5 mm 5 mps 732 mmHg 93%
    04:00 +7°C° 0.5 mm 5 mps 732 mmHg 92%
    05:00 +7°C° 0.5 mm 6 mps 733 mmHg 91%
    06:00 +7°C° 0.4 mm 6 mps 734 mmHg 90%
    07:00 +7°C° 0.4 mm 6 mps 734 mmHg 89%
    08:00 +6°C° 0.4 mm 7 mps 735 mmHg 88%
    09:00 +6°C° 0.5 mm 7 mps 736 mmHg 87%
    10:00 +6°C° 0.5 mm 7 mps 737 mmHg 86%
    11:00 +5°C° 0.5 mm 7 mps 738 mmHg 86%
    12:00 +5°C° 0.5 mm 7 mps 739 mmHg 85%
    13:00 +5°C° 0.5 mm 7 mps 739 mmHg 84%
    14:00 +5°C° 0.5 mm 7 mps 740 mmHg 83%
    15:00 +5°C° 0.4 mm 7 mps 741 mmHg 82%
    16:00 +5°C° 0.4 mm 7 mps 742 mmHg 81%
    17:00 +5°C° 0.4 mm 6 mps 743 mmHg 81%
    18:00 +5°C° 0.1 mm 6 mps 744 mmHg 81%
    19:00 +4°C° 0.1 mm 6 mps 745 mmHg 81%
    20:00 +4°C° 0.1 mm 6 mps 746 mmHg 81%
    21:00 +3°C° 0 mm 6 mps 746 mmHg 80%
    22:00 +3°C° 0 mm 5 mps 747 mmHg 78%
    23:00 +2°C° 0 mm 5 mps 748 mmHg 77%

    Day after tomorrow, 26 September, Wednesday

    Time Temperature Precipitation Wind Pressure Humidity
    00:00 +2°C° 0 mm 5 mps 749 mmHg 76%
    01:00 +1°C° 0 mm 5 mps 750 mmHg 75%
    02:00 0°C° 0 mm 5 mps 750 mmHg 74%
    03:00 0°C° 0 mm 4 mps 751 mmHg 74%
    04:00 0°C° 0 mm 4 mps 752 mmHg 75%
    05:00 -1°C° 0 mm 4 mps 752 mmHg 75%
    06:00 0°C° 0 mm 4 mps 753 mmHg 72%
    07:00 +1°C° 0 mm 4 mps 753 mmHg 70%
    08:00 +3°C° 0 mm 4 mps 753 mmHg 67%
    09:00 +5°C° 0 mm 4 mps 753 mmHg 64%
    10:00 +6°C° 0 mm 4 mps 753 mmHg 60%
    11:00 +8°C° 0 mm 4 mps 753 mmHg 56%
    12:00 +8°C° 0 mm 4 mps 753 mmHg 58%
    13:00 +10°C° 0 mm 4 mps 752 mmHg 59%
    14:00 +11°C° 0 mm 4 mps 752 mmHg 61%
    15:00 +10°C° 0 mm 4 mps 751 mmHg 64%
    16:00 +8°C° 0 mm 4 mps 751 mmHg 67%
    17:00 +7°C° 0 mm 4 mps 750 mmHg 70%
    18:00 +7°C° 0.1 mm 5 mps 749 mmHg 71%
    19:00 +7°C° 0.1 mm 5 mps 748 mmHg 72%
    20:00 +7°C° 0.1 mm 6 mps 747 mmHg 72%
    21:00 +5°C° 0.9 mm 7 mps 746 mmHg 77%
    22:00 +5°C° 0.9 mm 7 mps 745 mmHg 81%
    23:00 +4°C° 0.9 mm 7 mps 744 mmHg 85%

    27 September, Thursday

    Time Temperature Precipitation Wind Pressure Humidity
    00:00 +4°C° 1.5 mm 7 mps 743 mmHg 86%
    01:00 +4°C° 1.5 mm 7 mps 742 mmHg 88%
    02:00 +4°C° 1.5 mm 7 mps 741 mmHg 89%
    03:00 +5°C° 0.6 mm 6 mps 740 mmHg 89%
    04:00 +5°C° 0.6 mm 6 mps 740 mmHg 89%
    05:00 +6°C° 0.6 mm 5 mps 740 mmHg 89%
    06:00 +7°C° 0.2 mm 5 mps 740 mmHg 87%
    07:00 +7°C° 0.2 mm 5 mps 740 mmHg 84%
    08:00 +7°C° 0.2 mm 5 mps 740 mmHg 82%
    09:00 +8°C° 0.1 mm 6 mps 740 mmHg 77%
    10:00 +9°C° 0.1 mm 6 mps 740 mmHg 71%
    11:00 +9°C° 0.1 mm 6 mps 740 mmHg 66%
    12:00 +9°C° 0.2 mm 6 mps 740 mmHg 65%
    13:00 +9°C° 0.2 mm 6 mps 740 mmHg 64%
    14:00 +9°C° 0.2 mm 6 mps 740 mmHg 63%
    15:00 +9°C° 0.2 mm 5 mps 741 mmHg 67%
    16:00 +8°C° 0.2 mm 4 mps 741 mmHg 70%
    17:00 +8°C° 0.2 mm 3 mps 741 mmHg 74%
    18:00 +7°C° 0 mm 3 mps 741 mmHg 76%
    19:00 +7°C° 0 mm 3 mps 742 mmHg 77%
    20:00 +5°C° 0 mm 3 mps 742 mmHg 79%
    21:00 +5°C° 0 mm 3 mps 742 mmHg 80%
    22:00 +4°C° 0 mm 3 mps 743 mmHg 82%
    23:00 +4°C° 0 mm 4 mps 743 mmHg 83%

    28 September, Friday

    Time Temperature Precipitation Wind Pressure Humidity
    00:00 +4°C° 0 mm 4 mps 743 mmHg 84%
    01:00 +4°C° 0 mm 4 mps 744 mmHg 85%
    02:00 +3°C° 0 mm 4 mps 744 mmHg 86%
    03:00 +3°C° 0 mm 3 mps 744 mmHg 87%
    04:00 +3°C° 0 mm 3 mps 744 mmHg 89%
    05:00 +3°C° 0 mm 3 mps 744 mmHg 90%
    06:00 +3°C° 0.1 mm 3 mps 744 mmHg 88%
    07:00 +4°C° 0.1 mm 3 mps 743 mmHg 87%
    08:00 +4°C° 0.1 mm 3 mps 743 mmHg 85%
    09:00 +4°C° 0.9 mm 3 mps 742 mmHg 87%
    10:00 +5°C° 0.9 mm 2 mps 741 mmHg 88%
    11:00 +5°C° 0.9 mm 2 mps 741 mmHg 90%
    12:00 +5°C° 2.1 mm 2 mps 740 mmHg 91%
    13:00 +4°C° 2.1 mm 3 mps 739 mmHg 92%
    14:00 +4°C° 2.1 mm 3 mps 738 mmHg 93%
    15:00 +4°C° 0.7 mm 3 mps 738 mmHg 93%
    16:00 +4°C° 0.7 mm 3 mps 738 mmHg 93%
    17:00 +4°C° 0.7 mm 3 mps 738 mmHg 93%
    18:00 +4°C° 0.4 mm 3 mps 738 mmHg 93%
    19:00 +3°C° 0.4 mm 3 mps 739 mmHg 93%
    20:00 +3°C° 0.4 mm 3 mps 740 mmHg 93%
    21:00 +3°C° 0 mm 3 mps 741 mmHg 93%
    22:00 +3°C° 0 mm 3 mps 742 mmHg 93%
    23:00 +2°C° 0 mm 3 mps 743 mmHg 93%

    29 September, Saturday

    Time Temperature Precipitation Wind Pressure Humidity
    00:00 +3°C° 0 mm 2 mps 744 mmHg 93%
    01:00 +2°C° 0 mm 2 mps 745 mmHg 93%
    02:00 +2°C° 0 mm 2 mps 745 mmHg 93%
    03:00 +1°C° 0 mm 2 mps 746 mmHg 93%
    04:00 +1°C° 0 mm 2 mps 747 mmHg 93%
    05:00 -1°C° 0 mm 2 mps 748 mmHg 93%
    06:00 +1°C° 0 mm 2 mps 748 mmHg 89%
    07:00 +2°C° 0 mm 2 mps 749 mmHg 85%
    08:00 +3°C° 0 mm 2 mps 749 mmHg 82%
    09:00 +4°C° 0 mm 2 mps 750 mmHg 76%
    10:00 +4°C° 0 mm 3 mps 751 mmHg 70%
    11:00 +7°C° 0 mm 3 mps 751 mmHg 64%
    12:00 +7°C° 0 mm 3 mps 751 mmHg 61%
    13:00 +7°C° 0 mm 3 mps 752 mmHg 59%
    14:00 +8°C° 0 mm 3 mps 752 mmHg 56%
    15:00 +7°C° 0 mm 3 mps 752 mmHg 61%
    16:00 +6°C° 0 mm 2 mps 753 mmHg 66%
    17:00 +5°C° 0 mm 2 mps 753 mmHg 70%
    18:00 +4°C° 0 mm 2 mps 754 mmHg 74%
    19:00 +3°C° 0 mm 2 mps 754 mmHg 77%
    20:00 +2°C° 0 mm 2 mps 755 mmHg 81%
    21:00 +1°C° 0 mm 2 mps 756 mmHg 83%
    22:00 +1°C° 0 mm 2 mps 756 mmHg 85%
    23:00 -1°C° 0 mm 2 mps 757 mmHg 88%
    Show more